Location: Muenchen
(48.1800°N, 11.5800°E)
Time: 23:53:07
(UTC+02:00)

Tiros 1 - Visible Passes

Search period start: 23 September 2017 00:00
Search period end: 03 October 2017 00:00
Orbit: 630 x 665 km, 48.4° (Epoch: 22 September)

Date Brightness Start Highest point End Pass type
(mag) Time Alt. Az. Time Alt. Az. Time Alt. Az.
23 Sep 7.9 04:07:33 49° E 04:07:33 49° E 04:11:13 10° E visible
23 Sep 7.2 05:45:13 19° W 05:48:39 86° N 05:53:30 10° E visible
24 Sep 10.1 02:54:57 11° E 02:54:57 11° E 02:55:08 10° E visible
24 Sep 7.1 04:32:37 87° SSE 04:32:37 87° SSE 04:37:28 10° E visible
24 Sep 7.2 06:10:18 11° W 06:14:55 85° SSW 06:19:46 10° ESE visible
25 Sep 9.5 03:20:03 19° E 03:20:03 19° E 03:21:27 10° E visible
25 Sep 7.1 04:57:44 53° W 04:58:53 86° N 05:03:44 10° E visible
26 Sep 8.8 03:45:12 30° E 03:45:12 30° E 03:47:41 10° E visible
26 Sep 7.1 05:22:52 31° W 05:25:09 86° S 05:30:00 10° ESE visible
27 Sep 7.9 04:10:22 50° E 04:10:22 50° E 04:13:57 10° E visible
27 Sep 7.2 05:48:03 20° W 05:51:20 66° SSW 05:56:08 10° ESE visible
28 Sep 7.1 04:35:37 81° ESE 04:35:37 81° ESE 04:40:13 10° E visible
28 Sep 7.7 06:13:18 12° W 06:17:24 43° SSW 06:21:58 10° SE visible
29 Sep 9.8 03:23:16 15° E 03:23:16 15° E 03:24:10 10° E visible
29 Sep 7.1 05:00:57 61° WSW 05:01:34 69° SSW 05:06:22 10° ESE visible
30 Sep 9.2 03:48:42 22° E 03:48:42 22° E 03:50:26 10° E visible
30 Sep 7.5 05:26:24 37° WSW 05:27:40 45° SSW 05:32:14 10° SE visible
01 Oct 8.7 04:14:16 28° ESE 04:14:16 28° ESE 04:16:36 10° ESE visible
01 Oct 8.3 05:51:59 22° WSW 05:53:35 27° SW 05:57:36 10° SSE visible
02 Oct 8.5 04:39:59 29° SSE 04:39:59 29° SSE 04:42:31 10° SE visible
02 Oct 9.0 06:17:42 12° WSW 06:19:19 14° SW 06:21:51 10° SSW visible
